DW4025 Weather Reports


Display with metric or nautical units.
time (UTC)temp
F
wind
direction
speed
MPH
gust
MPH
rain 1hr
in
rain 24hr
in
rain mn
in
humidity
%
barometer
mb
20190217130345 67 172 2.0 6.0 0.00 0.01 0.00 92 1015.0
20190217125322 67 147 2.0 7.0 0.00 0.01 0.00 94 1014.9
20190217124251 66 155 2.0 7.0 0.00 0.01 0.00 95 1014.8
20190217123246 65 190 2.0 6.0 0.00 0.01 0.00 95 1014.7
20190217122244 65 167 3.0 6.0 0.00 0.01 0.00 95 1014.6
20190217121227 65 170 2.0 6.0 0.00 0.01 0.00 96 1014.5
20190217120243 64 165 2.0 5.0 0.00 0.01 0.00 95 1014.5
20190217115307 64 155 2.0 5.0 0.00 0.01 0.00 96 1014.4
20190217114330 64 179 2.0 4.0 0.00 0.01 0.00 95 1014.4
20190217113353 64 159 3.0 6.0 0.00 0.01 0.00 95 1014.3
20190217112319 64 153 3.0 6.0 0.00 0.01 0.00 95 1014.2
20190217111303 64 148 2.0 4.0 0.00 0.01 0.00 95 1014.0
20190217110327 64 143 2.0 4.0 0.00 0.01 0.00 95 1013.9
20190217105303 64 131 2.0 3.0 0.00 0.01 0.00 95 1013.9
20190217104240 64 140 1.0 3.0 0.00 0.01 0.00 95 1013.9
20190217103248 64 139 1.0 3.0 0.00 0.01 0.00 95 1013.9
20190217102309 65 136 2.0 3.0 0.00 0.01 0.00 95 1013.8
20190217101319 64 155 2.0 2.0 0.00 0.01 0.00 95 1013.7
20190217100255 64 129 1.0 2.0 0.00 0.01 0.00 95 1013.7
20190217095240 64 119 0.0 3.0 0.00 0.01 0.00 95 1013.7
20190217094235 65 125 0.0 3.0 0.00 0.01 0.00 95 1013.6
20190217093230 64 148 1.0 2.0 0.00 0.01 0.00 95 1013.6
20190217092249 64 124 1.0 1.0 0.00 0.01 0.00 95 1013.6
20190217091253 65 121 0.0 1.0 0.00 0.01 0.00 94 1013.5
20190217090314 65 133 0.0 2.0 0.00 0.01 0.00 94 1013.4
20190217085246 65 124 1.0 3.0 0.00 0.01 0.00 94 1013.1
20190217084215 65 156 1.0 3.0 0.00 0.01 0.00 94 1013.1
20190217083235 65 167 0.0 2.0 0.00 0.01 0.00 94 1013.0
20190217082249 65 149 0.0 2.0 0.00 0.01 0.00 94 1013.0
20190217081304 65 181 0.0 0.0 0.00 0.01 0.00 94 1013.0
20190217080320 65 242 0.0 1.0 0.00 0.01 0.00 94 1012.9
20190217075248 65 159 0.0 0.0 0.00 0.01 0.00 94 1012.8
20190217074244 65 177 0.0 2.0 0.00 0.01 0.00 93 1012.8
20190217073240 65 195 1.0 5.0 0.00 0.01 0.00 93 1012.7
20190217072247 66 229 2.0 7.0 0.00 0.01 0.00 93 1012.8
20190217071309 66 168 3.0 7.0 0.00 0.01 0.00 93 1012.8
20190217070242 66 180 1.0 4.0 0.00 0.01 0.00 93 1012.9
20190217065223 66 149 1.0 4.0 0.00 0.01 0.00 92 1013.1
20190217064245 66 181 0.0 3.0 0.00 0.01 0.00 92 1013.1
20190217063221 66 177 1.0 4.0 0.00 0.01 0.00 92 1013.3
20190217062151 67 174 1.0 4.0 0.00 0.01 0.00 93 1013.2
20190217061200 67 173 1.0 2.0 0.00 0.01 0.00 92 1013.1
20190217060134 67 212 1.0 4.0 0.00 0.01 0.00 92 1013.1
20190217055124 67 186 1.0 4.0 0.00 0.01 0.00 91 1013.1
20190217054116 67 186 1.0 4.0 0.00 0.01 0.00 91 1013.1
20190217053135 67 245 1.0 4.0 0.00 0.01 0.00 91 1013.0
20190217052117 67 238 1.0 5.0 0.00 0.01 0.00 90 1013.1
20190217051121 67 264 2.0 5.0 0.00 0.01 0.00 90 1012.9
20190217050057 67 246 2.0 7.0 0.00 0.01 0.00 90 1013.1
20190217045115 67 232 3.0 7.0 0.00 0.01 0.01 89 1013.1
20190217044135 67 255 3.0 7.0 0.00 0.01 0.01 89 1013.1
20190217043126 67 250 3.0 7.0 0.00 0.01 0.01 90 1013.2
20190217042132 66 252 3.0 7.0 0.00 0.01 0.01 91 1013.3
20190217041136 66 193 2.0 8.0 0.00 0.01 0.01 92 1013.2
20190217040104 66 248 2.0 8.0 0.00 0.01 0.01 93 1013.3
20190217035052 66 253 3.0 6.0 0.00 0.01 0.01 94 1013.4
20190217034046 66 240 3.0 8.0 0.00 0.01 0.01 94 1013.4
20190217033054 66 240 3.0 8.0 0.00 0.01 0.01 94 1013.3
20190217032111 66 225 3.0 8.0 0.00 0.01 0.01 95 1013.3
20190217031046 66 231 3.0 9.0 0.00 0.01 0.01 95 1013.3
20190217030018 66 248 3.0 9.0 0.00 0.01 0.01 95 1013.3
20190217025000 66 235 3.0 9.0 0.00 0.01 0.01 95 1013.3
20190217024006 66 246 4.0 9.0 0.00 0.01 0.01 95 1013.3
20190217022934 67 245 4.0 11.0 0.00 0.01 0.01 95 1013.2
20190217021955 67 226 5.0 12.0 0.00 0.01 0.01 95 1013.1
20190217020944 67 239 5.0 12.0 0.00 0.01 0.01 95 1013.1
20190217015954 67 242 4.0 12.0 0.00 0.01 0.01 95 1013.1
20190217014946 67 245 4.0 11.0 0.00 0.01 0.01 95 1013.0
20190217013938 67 215 4.0 10.0 0.00 0.01 0.01 95 1012.9
20190217012926 67 250 3.0 10.0 0.00 0.01 0.01 95 1012.8
20190217011854 67 239 5.0 11.0 0.00 0.01 0.01 95 1012.7
20190217010912 67 245 4.0 11.0 0.00 0.01 0.01 95 1012.6
20190217005837 67 249 3.0 10.0 0.00 0.01 0.01 95 1012.6
20190217004849 67 267 3.0 10.0 0.00 0.01 0.01 95 1012.4
20190217003909 67 273 3.0 9.0 0.00 0.01 0.01 95 1012.3
20190217002846 67 245 4.0 8.0 0.00 0.01 0.01 95 1012.2
20190217001851 67 263 4.0 8.0 0.00 0.01 0.01 95 1012.1
20190217000852 67 267 4.0 9.0 0.00 0.01 0.01 95 1012.0
20190216235910 67 290 4.0 9.0 0.00 0.01 0.01 94 1011.9
20190216234901 67 288 4.0 12.0 0.00 0.01 0.01 94 1011.8
20190216233907 67 229 6.0 12.0 0.00 0.01 0.01 94 1011.8
20190216232847 68 271 4.0 10.0 0.00 0.01 0.01 93 1011.9
20190216231815 68 269 4.0 12.0 0.00 0.01 0.01 93 1011.9
20190216230839 68 276 6.0 12.0 0.00 0.01 0.01 92 1011.9
20190216225819 68 269 6.0 11.0 0.00 0.01 0.01 92 1011.7
20190216224754 69 248 5.0 14.0 0.00 0.01 0.01 91 1011.6
20190216223722 69 242 6.0 13.0 0.00 0.01 0.01 90 1011.6
20190216222653 69 266 6.0 13.0 0.00 0.01 0.01 89 1011.7
20190216221639 69 249 7.0 14.0 0.00 0.01 0.01 89 1011.7
20190216220702 70 281 5.0 14.0 0.00 0.01 0.01 89 1011.6
20190216215648 69 247 6.0 15.0 0.00 0.01 0.01 89 1011.6
20190216214701 69 236 6.0 15.0 0.00 0.01 0.01 89 1011.5
20190216213642 70 240 6.0 15.0 0.00 0.01 0.01 88 1011.3
20190216212649 70 257 6.0 14.0 0.00 0.01 0.01 87 1011.2
20190216211632 71 270 7.0 15.0 0.00 0.01 0.01 87 1011.3
20190216210606 71 249 8.0 15.0 0.00 0.01 0.01 86 1011.4
20190216205628 71 282 7.0 14.0 0.00 0.01 0.01 86 1011.5
20190216204621 71 291 7.0 15.0 0.00 0.01 0.01 87 1011.4
20190216203626 71 229 7.0 15.0 0.00 0.01 0.01 86 1011.4
20190216202626 71 225 6.0 15.0 0.00 0.01 0.01 86 1011.4
20190216201613 71 262 7.0 15.0 0.00 0.01 0.01 86 1011.5
20190216200555 71 255 8.0 15.0 0.00 0.01 0.01 85 1011.5
20190216195603 71 226 7.0 16.0 0.00 0.01 0.01 85 1011.7
20190216194611 71 253 8.0 19.0 0.00 0.01 0.01 86 1011.5
20190216193625 72 240 8.0 19.0 0.00 0.01 0.01 85 1011.5
20190216192612 71 255 8.0 17.0 0.00 0.01 0.01 85 1011.6
20190216191559 71 250 8.0 17.0 0.00 0.01 0.01 86 1011.6
20190216190541 71 304 8.0 19.0 0.00 0.01 0.01 85 1011.7
20190216185540 71 255 8.0 19.0 0.00 0.01 0.01 86 1011.9
20190216184550 70 311 10.0 20.0 0.00 0.01 0.01 86 1012.0
20190216183528 70 273 10.0 20.0 0.00 0.01 0.01 86 1012.0
20190216182547 71 304 10.0 17.0 0.00 0.01 0.01 86 1012.3
20190216181547 71 259 8.0 18.0 0.00 0.01 0.01 86 1012.4
20190216180519 71 285 10.0 22.0 0.00 0.01 0.01 86 1012.7
20190216175505 71 248 9.0 22.0 0.00 0.01 0.01 87 1012.9
20190216174502 71 254 7.0 21.0 0.00 0.01 0.01 86 1012.9
20190216173439 71 246 9.0 21.0 0.00 0.01 0.01 85 1013.1
20190216172409 71 258 9.0 23.0 0.00 0.01 0.01 87 1013.1
20190216171334 71 252 10.0 24.0 0.00 0.01 0.01 85 1013.1
20190216170350 71 249 11.0 24.0 0.00 0.01 0.01 86 1012.9
20190216165342 71 309 10.0 19.0 0.00 0.01 0.01 86 1013.0
20190216164339 70 271 10.0 22.0 0.00 0.01 0.01 86 1013.1
20190216163353 70 240 10.0 22.0 0.00 0.01 0.01 86 1013.3
20190216162350 70 253 9.0 20.0 0.00 0.01 0.01 86 1013.4
20190216161320 70 257 8.0 17.0 0.00 0.01 0.01 86 1013.4
20190216160249 70 248 8.0 16.0 0.00 0.01 0.01 86 1013.4
20190216155253 69 256 7.0 16.0 0.00 0.01 0.01 86 1013.4
20190216154221 69 243 9.0 19.0 0.00 0.01 0.01 86 1013.6
20190216153229 69 253 10.0 19.0 0.00 0.01 0.01 86 1013.4
20190216152253 69 259 9.0 16.0 0.00 0.01 0.01 86 1013.5
20190216151247 69 215 8.0 17.0 0.00 0.01 0.01 86 1013.5
20190216150258 69 233 10.0 17.0 0.00 0.01 0.01 86 1013.8
20190216145320 69 240 8.0 17.0 0.00 0.01 0.01 86 1013.4
20190216144343 68 239 8.0 17.0 0.00 0.01 0.01 87 1013.5
20190216143326 68 215 7.0 15.0 0.00 0.01 0.01 87 1013.5
20190216142337 67 236 6.0 13.0 0.00 0.01 0.01 88 1013.4
20190216141346 66 245 6.0 14.0 0.00 0.01 0.01 89 1013.3
20190216140401 66 309 5.0 14.0 0.00 0.00 0.01 90 1013.3
20190216135418 65 236 4.0 14.0 0.00 0.00 0.00 91 1013.1
20190216134402 64 210 4.0 10.0 0.00 0.00 0.00 92 1013.0
20190216133423 63 246 3.0 8.0 0.00 0.00 0.00 94 1013.1
20190216132352 62 198 3.0 8.0 0.00 0.00 0.00 95 1013.1
20190216131351 62 183 2.0 6.0 0.00 0.00 0.00 96 1013.2
20190216130403 61 186 2.0 5.0 0.00 0.00 0.00 96 1013.2